Location: Newark
(48.0000°N, 67.0000°E)
Time: 01:48:54
(UTC+00:00)

NOAA 19 - Visible Passes

Search period start: 03 April 2020 00:00
Search period end: 13 April 2020 00:00
Orbit: 842 x 860 km, 99.2° (Epoch: 02 April)

Date Brightness Start Highest point End Pass type
(mag) Time Alt. Az. Time Alt. Az. Time Alt. Az.
04 Apr 8.0 00:29:38 10° NE 00:33:48 21° E 00:37:57 10° SE visible
05 Apr 8.2 00:18:24 10° NE 00:21:57 17° E 00:25:29 10° SE visible
06 Apr 8.4 00:07:25 10° ENE 00:10:05 13° E 00:12:43 10° ESE visible
06 Apr 8.7 23:57:17 10° ENE 23:58:10 10° E 23:59:03 10° E visible
